| time (UTC) | temp F | wind direction | speed MPH | gust MPH | rain 1hr in | rain 24hr in | rain mn in | humidity % | barometer mb |
| 20260905111410 | 66 | 248 | 6.0 | 13.0 | 0.00 | 0.25 | 0.00 | 65 | 1024.5 |
| 20260905105910 | 65 | 273 | 7.0 | 10.0 | 0.00 | 0.25 | 0.00 | 69 | 1024.5 |
| 20260905105409 | 65 | 286 | 7.0 | 13.0 | 0.00 | 0.25 | 0.00 | 67 | 1024.3 |
| 20260905104411 | 65 | 255 | 5.0 | 15.0 | 0.00 | 0.25 | 0.00 | 69 | 1024.3 |
| 20260905103910 | 65 | 299 | 5.0 | 8.0 | 0.00 | 0.25 | 0.00 | 70 | 1024.3 |
| 20260905103409 | 65 | 261 | 5.0 | 12.0 | 0.00 | 0.25 | 0.00 | 70 | 1024.3 |
| 20260905102412 | 64 | 292 | 5.0 | 10.0 | 0.00 | 0.25 | 0.00 | 70 | 1024.2 |
| 20260905101415 | 64 | 314 | 5.0 | 8.0 | 0.00 | 0.25 | 0.00 | 71 | 1024.2 |
| 20260905100919 | 65 | 305 | 6.0 | 12.0 | 0.00 | 0.25 | 0.00 | 73 | 1024.1 |
| 20260905095917 | 64 | 341 | 6.0 | 12.0 | 0.00 | 0.25 | 0.00 | 72 | 1024.1 |
| 20260905095410 | 64 | 243 | 6.0 | 17.0 | 0.00 | 0.25 | 0.00 | 73 | 1024.0 |
| 20260905094911 | 64 | 247 | 7.0 | 14.0 | 0.00 | 0.25 | 0.00 | 75 | 1024.0 |
| 20260905093410 | 63 | 249 | 7.0 | 15.0 | 0.00 | 0.25 | 0.00 | 76 | 1023.9 |
| 20260905092911 | 63 | 290 | 6.0 | 12.0 | 0.00 | 0.25 | 0.00 | 75 | 1023.9 |
| 20260905092409 | 63 | 237 | 6.0 | 12.0 | 0.00 | 0.25 | 0.00 | 79 | 1023.7 |
| 20260905091910 | 63 | 219 | 6.0 | 14.0 | 0.00 | 0.25 | 0.00 | 82 | 1023.7 |
| 20260905090910 | 62 | 251 | 6.0 | 9.0 | 0.00 | 0.25 | 0.00 | 82 | 1023.6 |
| 20260905085409 | 62 | 259 | 6.0 | 13.0 | 0.00 | 0.25 | 0.00 | 83 | 1023.5 |
| 20260905083910 | 62 | 251 | 5.0 | 13.0 | 0.00 | 0.25 | 0.00 | 86 | 1023.3 |
| 20260905083409 | 62 | 238 | 5.0 | 10.0 | 0.00 | 0.25 | 0.00 | 87 | 1023.3 |
| 20260905082910 | 61 | 251 | 6.0 | 10.0 | 0.00 | 0.25 | 0.00 | 87 | 1023.3 |
| 20260905082409 | 61 | 233 | 7.0 | 9.0 | 0.00 | 0.25 | 0.00 | 88 | 1023.1 |
| 20260905075911 | 60 | 252 | 6.0 | 10.0 | 0.00 | 0.25 | 0.00 | 88 | 1023.0 |
| 20260905075409 | 60 | 234 | 6.0 | 8.0 | 0.00 | 0.25 | 0.00 | 89 | 1022.9 |
| 20260905073909 | 59 | 229 | 5.0 | 12.0 | 0.00 | 0.25 | 0.00 | 90 | 1022.8 |
| 20260905073409 | 59 | 237 | 5.0 | 9.0 | 0.00 | 0.25 | 0.00 | 90 | 1022.8 |
| 20260905072911 | 59 | 238 | 5.0 | 8.0 | 0.00 | 0.25 | 0.00 | 90 | 1022.8 |
| 20260905070409 | 59 | 249 | 5.0 | 7.0 | 0.00 | 0.25 | 0.00 | 91 | 1022.3 |
| 20260905065912 | 59 | 284 | 5.0 | 9.0 | 0.00 | 0.25 | 0.00 | 91 | 1022.3 |
| 20260905064410 | 58 | 242 | 3.0 | 8.0 | 0.00 | 0.25 | 0.00 | 93 | 1022.2 |
| 20260905063910 | 58 | 238 | 3.0 | 6.0 | 0.00 | 0.25 | 0.00 | 93 | 1022.1 |
| 20260905063410 | 58 | 242 | 2.0 | 7.0 | 0.00 | 0.25 | 0.00 | 93 | 1022.1 |
| 20260905062911 | 58 | 250 | 2.0 | 7.0 | 0.00 | 0.25 | 0.00 | 93 | 1022.1 |
| 20260905062409 | 58 | 250 | 2.0 | 7.0 | 0.00 | 0.25 | 0.00 | 93 | 1021.9 |
| 20260905061409 | 58 | 295 | 2.0 | 7.0 | 0.00 | 0.25 | 0.00 | 93 | 1021.9 |
| 20260905060910 | 58 | 253 | 3.0 | 7.0 | 0.00 | 0.25 | 0.00 | 94 | 1021.8 |
| 20260905055912 | 58 | 309 | 3.0 | 7.0 | 0.00 | 0.25 | 0.00 | 94 | 1021.8 |
| 20260905054910 | 59 | 279 | 2.0 | 7.0 | 0.00 | 0.25 | 0.00 | 94 | 1021.7 |
| 20260905053410 | 59 | 275 | 2.0 | 5.0 | 0.00 | 0.25 | 0.00 | 95 | 1021.4 |
| 20260905050409 | 59 | 313 | 2.0 | 5.0 | 0.00 | 0.25 | 0.00 | 96 | 1020.9 |
| 20260905043909 | 59 | 267 | 1.0 | 5.0 | 0.00 | 0.25 | 0.00 | 95 | 1020.5 |
| 20260905042912 | 59 | 209 | 2.0 | 2.0 | 0.00 | 0.25 | 0.00 | 95 | 1020.5 |
| 20260905042409 | 59 | 291 | 2.0 | 5.0 | 0.00 | 0.25 | 0.00 | 95 | 1020.4 |
| 20260905041409 | 59 | 240 | 1.0 | 3.0 | 0.00 | 0.25 | 0.00 | 95 | 1020.4 |
| 20260905034909 | 60 | 227 | 1.0 | 2.0 | 0.00 | 0.25 | 0.00 | 95 | 1020.2 |
| 20260905033910 | 60 | 279 | 1.0 | 3.0 | 0.00 | 0.25 | 0.00 | 95 | 1020.2 |
| 20260905032911 | 60 | 276 | 2.0 | 5.0 | 0.00 | 0.25 | 0.00 | 95 | 1020.2 |
| 20260905032410 | 60 | 352 | 2.0 | 2.0 | 0.00 | 0.25 | 0.00 | 95 | 1020.1 |
| 20260905030410 | 60 | 237 | 2.0 | 5.0 | 0.00 | 0.25 | 0.00 | 95 | 1020.2 |
| 20260905025410 | 60 | 209 | 1.0 | 2.0 | 0.00 | 0.25 | 0.00 | 95 | 1020.2 |
| 20260905024409 | 60 | 228 | 1.0 | 5.0 | 0.00 | 0.25 | 0.00 | 95 | 1020.2 |
| 20260905022911 | 61 | 268 | 2.0 | 3.0 | 0.00 | 0.25 | 0.00 | 94 | 1019.9 |
| 20260905021910 | 61 | 313 | 2.0 | 5.0 | 0.00 | 0.25 | 0.00 | 94 | 1019.9 |
| 20260905020409 | 61 | 277 | 2.0 | 6.0 | 0.00 | 0.25 | 0.00 | 94 | 1019.7 |
| 20260905014409 | 62 | 296 | 2.0 | 6.0 | 0.00 | 0.25 | 0.00 | 95 | 1019.6 |
| 20260905010409 | 62 | 290 | 1.0 | 3.0 | 0.00 | 0.25 | 0.00 | 95 | 1019.5 |
| 20260905005911 | 62 | 224 | 2.0 | 3.0 | 0.00 | 0.25 | 0.00 | 94 | 1019.5 |
| 20260905002911 | 62 | 295 | 1.0 | 5.0 | 0.00 | 0.25 | 0.00 | 95 | 1019.3 |
| 20260904234409 | 62 | 62 | 0.0 | 0.0 | 0.00 | 0.27 | 0.00 | 92 | 1019.2 |
| 20260904231909 | 63 | 268 | 2.0 | 3.0 | 0.00 | 0.28 | 0.00 | 90 | 1019.3 |
| 20260904230410 | 63 | 330 | 2.0 | 5.0 | 0.00 | 0.28 | 0.00 | 91 | 1019.1 |
| 20260904225409 | 63 | 5 | 2.0 | 2.0 | 0.00 | 0.28 | 0.00 | 93 | 1019.0 |
| 20260904224409 | 64 | 291 | 2.0 | 5.0 | 0.00 | 0.28 | 0.00 | 93 | 1019.0 |
| 20260904221411 | 64 | 244 | 2.0 | 6.0 | 0.00 | 0.28 | 0.00 | 93 | 1018.7 |
| 20260904220910 | 64 | 260 | 4.0 | 9.0 | 0.00 | 0.28 | 0.00 | 93 | 1018.5 |
| 20260904220410 | 64 | 240 | 5.0 | 6.0 | 0.00 | 0.28 | 0.00 | 93 | 1018.5 |
| 20260904215911 | 64 | 283 | 5.0 | 9.0 | 0.00 | 0.28 | 0.00 | 93 | 1018.5 |
| 20260904214909 | 64 | 254 | 5.0 | 8.0 | 0.00 | 0.28 | 0.28 | 94 | 1018.5 |
| 20260904213910 | 64 | 237 | 3.0 | 9.0 | 0.00 | 0.28 | 0.28 | 94 | 1018.3 |
| 20260904213409 | 64 | 238 | 2.0 | 9.0 | 0.00 | 0.28 | 0.28 | 94 | 1018.3 |
| 20260904212911 | 64 | 229 | 2.0 | 7.0 | 0.00 | 0.28 | 0.28 | 94 | 1018.3 |
| 20260904211410 | 64 | 301 | 2.0 | 5.0 | 0.00 | 0.28 | 0.28 | 94 | 1018.2 |
| 20260904210910 | 64 | 342 | 2.0 | 7.0 | 0.00 | 0.28 | 0.28 | 94 | 1018.2 |
| 20260904210410 | 64 | 250 | 2.0 | 9.0 | 0.00 | 0.28 | 0.28 | 94 | 1018.2 |
| 20260904205911 | 64 | 306 | 2.0 | 6.0 | 0.00 | 0.28 | 0.28 | 94 | 1018.2 |
| 20260904205410 | 64 | 271 | 2.0 | 5.0 | 0.00 | 0.28 | 0.28 | 95 | 1018.1 |
| 20260904204909 | 64 | 240 | 2.0 | 7.0 | 0.00 | 0.28 | 0.28 | 94 | 1018.1 |
| 20260904204410 | 64 | 323 | 2.0 | 6.0 | 0.00 | 0.28 | 0.28 | 95 | 1018.1 |
| 20260904202908 | 64 | 235 | 4.0 | 6.0 | 0.00 | 0.28 | 0.28 | 95 | 1017.9 |
| 20260904202409 | 64 | 236 | 5.0 | 7.0 | 0.00 | 0.28 | 0.28 | 95 | 1017.8 |
| 20260904201909 | 64 | 232 | 3.0 | 6.0 | 0.00 | 0.28 | 0.28 | 95 | 1017.8 |
| 20260904201409 | 64 | 241 | 3.0 | 9.0 | 0.00 | 0.28 | 0.28 | 95 | 1017.8 |
| 20260904200909 | 64 | 241 | 2.0 | 7.0 | 0.00 | 0.28 | 0.28 | 95 | 1018.0 |
| 20260904195913 | 64 | 264 | 2.0 | 5.0 | 0.00 | 0.28 | 0.28 | 96 | 1018.0 |
| 20260904195409 | 64 | 267 | 2.0 | 6.0 | 0.00 | 0.28 | 0.28 | 96 | 1017.7 |
| 20260904193909 | 64 | 231 | 2.0 | 5.0 | 0.00 | 0.28 | 0.28 | 96 | 1017.7 |
| 20260904193408 | 64 | 268 | 2.0 | 7.0 | 0.00 | 0.28 | 0.28 | 96 | 1017.7 |
| 20260904192909 | 64 | 261 | 2.0 | 6.0 | 0.00 | 0.28 | 0.28 | 96 | 1017.7 |
| 20260904192409 | 64 | 221 | 2.0 | 5.0 | 0.00 | 0.28 | 0.28 | 96 | 1017.5 |
| 20260904191408 | 64 | 311 | 2.0 | 6.0 | 0.00 | 0.28 | 0.28 | 96 | 1017.5 |
| 20260904190909 | 64 | 266 | 1.0 | 9.0 | 0.00 | 0.28 | 0.28 | 96 | 1017.2 |
| 20260904190409 | 64 | 319 | 0.0 | 5.0 | 0.00 | 0.28 | 0.28 | 96 | 1017.2 |
| 20260904185408 | 64 | 326 | 2.0 | 1.0 | 0.00 | 0.28 | 0.28 | 96 | 1017.1 |
| 20260904184909 | 64 | 233 | 2.0 | 3.0 | 0.01 | 0.28 | 0.28 | 96 | 1017.1 |
| 20260904184410 | 64 | 232 | 2.0 | 5.0 | 0.01 | 0.28 | 0.28 | 95 | 1017.1 |
| 20260904183909 | 64 | 261 | 2.0 | 6.0 | 0.02 | 0.28 | 0.28 | 95 | 1016.9 |
| 20260904183409 | 64 | 259 | 2.0 | 5.0 | 0.03 | 0.28 | 0.28 | 95 | 1016.9 |
| 20260904181409 | 64 | 222 | 2.0 | 6.0 | 0.07 | 0.28 | 0.28 | 95 | 1016.6 |
| 20260904180909 | 64 | 252 | 3.0 | 5.0 | 0.09 | 0.28 | 0.28 | 95 | 1016.5 |
| 20260904180409 | 64 | 240 | 3.0 | 6.0 | 0.12 | 0.28 | 0.28 | 95 | 1016.5 |
| 20260904175909 | 64 | 218 | 3.0 | 6.0 | 0.15 | 0.28 | 0.28 | 95 | 1016.5 |
| 20260904175409 | 64 | 261 | 3.0 | 7.0 | 0.18 | 0.28 | 0.28 | 94 | 1016.5 |
| 20260904174409 | 64 | 246 | 5.0 | 6.0 | 0.20 | 0.27 | 0.27 | 94 | 1016.5 |
| 20260904173409 | 64 | 240 | 3.0 | 9.0 | 0.20 | 0.25 | 0.25 | 93 | 1016.5 |
| 20260904172409 | 64 | 263 | 5.0 | 7.0 | 0.21 | 0.24 | 0.24 | 93 | 1016.3 |
| 20260904165409 | 66 | 305 | 7.0 | 10.0 | 0.07 | 0.10 | 0.10 | 90 | 1015.8 |
| 20260904164911 | 67 | 295 | 6.0 | 14.0 | 0.05 | 0.08 | 0.08 | 88 | 1015.8 |
| 20260904162942 | 72 | 313 | 8.0 | 24.0 | 0.00 | 0.03 | 0.03 | 74 | 1015.6 |
| 20260904162415 | 73 | 238 | 8.0 | 21.0 | 0.00 | 0.03 | 0.03 | 73 | 1015.0 |
| 20260904161927 | 73 | 228 | 9.0 | 16.0 | 0.00 | 0.03 | 0.03 | 73 | 1015.0 |
| 20260904160912 | 73 | 224 | 10.0 | 18.0 | 0.00 | 0.03 | 0.03 | 73 | 1015.0 |
| 20260904154910 | 73 | 253 | 15.0 | 22.0 | 0.00 | 0.03 | 0.03 | 73 | 1015.2 |
| 20260904152409 | 74 | 253 | 13.0 | 24.0 | 0.00 | 0.03 | 0.03 | 72 | 1015.0 |
| 20260904150409 | 73 | 260 | 8.0 | 31.0 | 0.00 | 0.03 | 0.03 | 72 | 1015.3 |
| 20260904145408 | 73 | 246 | 9.0 | 15.0 | 0.00 | 0.03 | 0.03 | 74 | 1015.4 |
| 20260904143908 | 73 | 248 | 10.0 | 29.0 | 0.00 | 0.03 | 0.03 | 73 | 1015.4 |
| 20260904142409 | 74 | 274 | 10.0 | 26.0 | 0.00 | 0.03 | 0.03 | 72 | 1015.2 |
| 20260904141909 | 74 | 303 | 10.0 | 29.0 | 0.00 | 0.03 | 0.03 | 70 | 1015.2 |
| 20260904141410 | 74 | 289 | 10.0 | 21.0 | 0.00 | 0.03 | 0.03 | 70 | 1015.2 |
| 20260904140910 | 74 | 247 | 10.0 | 26.0 | 0.00 | 0.03 | 0.03 | 69 | 1015.2 |
| 20260904140408 | 74 | 308 | 10.0 | 23.0 | 0.00 | 0.03 | 0.03 | 69 | 1015.2 |
| 20260904134909 | 75 | 277 | 15.0 | 29.0 | 0.00 | 0.03 | 0.03 | 67 | 1015.0 |
| 20260904133408 | 76 | 258 | 12.0 | 29.0 | 0.00 | 0.03 | 0.03 | 67 | 1014.9 |
| 20260904132910 | 76 | 219 | 12.0 | 33.0 | 0.00 | 0.03 | 0.03 | 67 | 1014.9 |
| 20260904132409 | 76 | 252 | 12.0 | 29.0 | 0.00 | 0.03 | 0.03 | 67 | 1014.9 |
| 20260904131909 | 76 | 272 | 10.0 | 25.0 | 0.00 | 0.03 | 0.03 | 67 | 1014.9 |
| 20260904130411 | 76 | 271 | 10.0 | 16.0 | 0.00 | 0.03 | 0.03 | 67 | 1014.9 |
| 20260904125911 | 76 | 298 | 9.0 | 26.0 | 0.00 | 0.03 | 0.03 | 67 | 1014.9 |
| 20260904125409 | 76 | 249 | 8.0 | 20.0 | 0.00 | 0.03 | 0.03 | 68 | 1014.9 |
| 20260904123409 | 75 | 244 | 9.0 | 24.0 | 0.00 | 0.03 | 0.03 | 70 | 1014.9 |
| 20260904122409 | 75 | 243 | 12.0 | 16.0 | 0.00 | 0.03 | 0.03 | 69 | 1015.1 |
| 20260904120908 | 75 | 243 | 12.0 | 15.0 | 0.00 | 0.03 | 0.03 | 71 | 1015.0 |
| 20260904120409 | 75 | 245 | 13.0 | 26.0 | 0.00 | 0.03 | 0.03 | 71 | 1015.0 |
| 20260904114409 | 75 | 230 | 9.0 | 38.0 | 0.00 | 0.03 | 0.03 | 71 | 1015.1 |
| 20260904113909 | 75 | 258 | 9.0 | 23.0 | 0.00 | 0.03 | 0.03 | 71 | 1014.9 |
| 20260904112910 | 75 | 243 | 9.0 | 24.0 | 0.00 | 0.03 | 0.03 | 73 | 1014.9 |